RH
55 46 34 32 32 31 40 44 46 47 48 47 48 46 43 36 21 21 26 32 42 45 42 37 43 42 36 35 37 28 33 35 34 40 46 52 50 51 57 65 79 85 49
60 43 33 35 37 34 24 34 39 42 45 40 42 40 40 30 22 20 24 27 29 35 38 36 37 34 29 26 26 27 30 32 36 38 48 56 53 52 51 58 90 62 56
48 40 35 37 39 33 16 18 23 23 24 29 31 28 24 23 21 19 20 23 26 28 30 26 25 24 23 22 26 28 29 32 36 42 72 81 87 51 54 54 59 59 61
44 40 37 38 39 36 21 19 19 19 21 24 25 26 24 22 21 21 21 24 25 27 27 26 24 20 21 23 26 29 31 34 37 44 82 78 88 52 53 54 56 61 57
61 58 38 39 40 40 35 30 31 32 33 32 33 32 31 29 26 24 23 22 23 24 26 28 28 26 22 23 28 34 38 41 40 70 78 84 84 48 51 54 58 62 65
69 69 40 43 41 41 42 43 42 39 38 38 40 40 40 38 35 33 30 27 26 27 28 28 31 32 27 23 26 33 42 49 50 78 78 77 87 45 42 52 54 62 63
75 73 44 47 47 44 42 42 43 44 45 45 44 43 43 43 43 43 42 40 36 32 32 32 32 35 35 29 27 30 43 52 72 77 77 89 92 46 40 45 51 58 66
68 50 46 48 50 51 50 50 49 48 48 49 50 50 49 48 46 46 46 46 47 46 42 39 37 36 37 36 32 31 36 47 63 77 79 79 83 58 55 51 46 51 59
50 55 56 56 56 58 58 58 57 56 55 56 56 57 58 58 56 54 50 48 48 49 50 51 48 45 42 42 40 35 31 35 60 76 82 76 76 61 57 57 58 49 54
57 59 62 63 63 65 65 65 63 62 62 61 61 62 63 64 64 63 61 59 55 52 51 51 54 56 54 50 47 44 40 33 34 80 76 76 74 61 64 55 56 52 53
58 62 64 90 97 95 85 70 72 70 67 66 66 64 64 66 64 66 66 63 64 63 60 55 54 55 58 59 59 55 48 43 69 71 70 77 56 58 64 62 56 58 56
64 52 57 64 74 72 82 71 72 71 81 82 75 71 70 73 84 76 77 69 72 70 68 69 66 61 59 71 86 74 64 80 78 71 68 71 40 39 50 58 57 58 60
73 65 62 64 68 69 68 69 76 78 77 72 76 96 95 97 99 80 74 71 76 73 77 80 81 82 94 94 88 98 93 98 92 85 74 66 43 38 43 47 55 62 62
76 74 80 83 78 76 77 77 76 78 79 77 76 74 77 81 82 86 84 82 90 80 81 82 87 73 92 94 96 97 99 99 99 93 85 81 65 50 42 43 41 53 66
85 81 77 81 78 79 72 87 82 82 91 94 83 82 82 68 72 75 78 81 82 79 79 87 89 87 79 76 76 76 76 77 81 88 98 99 78 73 62 49 60 48 57
94 88 83 82 87 89 84 97 99 99 99 100 99 97 93 80 86 98 94 91 90 89 89 90 96 94 97 97 91 91 92 94 94 93 93 97 88 87 83 69 62 70 66
87 85 86 84 82 88 86 96 99 98 99 97 98 97 96 95 91 88 86 82 79 78 77 75 74 75 79 89 86 98 99 93 92 88 85 91 96 87 90 90 77 64 63
71 68 63 64 71 79 89 96 96 91 84 74 67 54 43 40 40 37 35 37 40 37 35 35 37 42 53 70 79 86 78 95 96 98 84 91 95 96 88 87 94 91 73
57 50 47 46 46 46 46 42 37 31 28 26 23 21 18 16 14 13 12 12 12 12 13 16 20 35 55 53 55 61 67 74 77 88 89 86 86 89 89 91 86 93 98
47 41 36 32 29 26 25 25 24 22 19 13 11 9 7 6 5 4 4 4 4 5 12 30 15 36 60 60 58 54 58 57 58 57 61 69 89 85 90 93 86 79 86
41 37 32 28 25 27 26 22 17 12 11 10 9 6 6 6 5 4 4 5 6 8 7 7 11 45 59 60 70 51 49 56 60 52 49 77 78 64 68 87 92 99 99
40 34 28 27 29 28 22 17 12 10 11 10 10 10 10 8 6 6 7 15 20 25 33 37 44 48 56 72 74 66 46 47 58 77 78 73 83 85 90 88 96 92 99
38 31 32 32 31 28 26 32 29 36 44 48 47 29 17 14 9 7 15 27 31 34 44 46 46 41 76 77 89 78 57 48 66 55 62 66 69 70 65 67 74 82 87
36 34 35 33 33 41 56 70 77 64 40 36 32 27 26 27 20 10 15 35 36 41 47 48 54 92 97 94 87 81 86 78 70 58 54 56 63 68 68 64 64 64 35
40 37 36 34 38 66 87 77 71 71 80 79 67 52 26 20 21 16 21 37 42 42 49 53 55 56 68 79 93 84 83 80 79 74 62 54 49 52 56 61 63 70 74
51 43 38 37 62 71 71 65 58 70 71 43 31 29 24 25 28 31 27 44 50 45 43 42 43 45 56 75 85 82 94 86 71 70 66 64 62 62 63 68 70 70 68
Wind_Speed
14 17 17 15 13 13 14 14 14 14 12 10 10 10 9 9 11 12 12 12 11 10 10 10 8 7 5 5 5 6 7 8 8 9 9 9 10 10 9 10 12 9 12
18 19 18 16 13 11 12 13 13 12 11 10 9 9 8 9 10 11 11 10 9 9 8 7 6 4 3 4 5 6 7 7 8 8 8 9 9 8 8 8 13 8 10
18 19 19 18 15 12 12 12 13 13 12 11 11 10 9 9 9 9 9 9 8 7 6 5 4 3 3 4 4 5 6 7 7 8 12 6 5 7 7 7 7 7 8
19 20 20 19 17 14 13 13 14 13 13 12 10 9 9 9 9 8 8 7 6 5 4 3 3 2 2 3 3 5 5 6 6 8 9 6 5 6 5 5 5 6 6
19 20 21 19 17 16 15 12 12 12 11 11 10 9 8 7 7 7 7 5 4 3 3 1 1 1 1 1 2 3 5 5 5 9 6 6 5 4 4 4 4 5 6
18 18 21 20 19 17 15 13 11 11 10 9 8 7 7 7 6 6 5 4 3 2 2 1 1 1 1 1 1 2 3 3 4 4 3 6 6 3 3 4 4 4 4
18 19 23 21 19 18 17 16 14 12 10 9 8 7 7 7 6 6 5 4 3 3 3 3 3 2 1 2 3 3 3 3 5 4 3 4 5 3 3 3 4 5 5
19 21 22 21 20 18 17 16 15 14 13 12 12 11 10 10 10 9 9 8 7 7 6 5 5 6 5 4 5 6 6 5 4 5 5 5 9 4 4 4 5 6 7
16 18 20 20 20 19 18 18 17 16 15 15 14 14 13 13 13 13 13 13 12 11 10 9 8 8 8 8 7 7 9 9 8 8 8 7 13 8 7 5 7 7 8
16 17 17 18 17 17 17 17 17 17 17 17 17 16 16 15 15 16 16 16 16 16 16 15 13 12 12 12 11 11 11 13 14 11 10 10 16 11 10 9 7 9 9
15 14 15 11 10 13 16 21 19 19 19 18 18 18 17 17 18 18 17 18 18 19 19 19 19 17 16 16 16 16 16 16 13 13 13 18 15 14 13 13 11 10 11
14 18 18 19 19 17 14 17 18 19 14 14 16 18 18 17 14 15 17 19 19 20 21 21 21 21 21 18 16 20 22 17 16 16 15 23 17 17 16 16 15 14 13
13 15 16 16 14 15 17 18 19 19 21 21 20 15 13 11 14 14 13 14 15 18 17 20 21 21 19 17 18 20 17 18 17 17 18 26 20 21 20 19 18 18 18
17 17 16 16 17 17 15 16 19 20 20 20 19 19 18 16 15 14 13 13 15 14 13 14 16 23 23 24 24 23 21 20 19 19 21 28 25 24 25 23 21 22 21
15 17 17 16 17 17 17 16 16 16 16 17 16 16 16 19 17 16 16 15 16 17 16 15 17 19 19 23 26 26 27 28 28 28 24 27 30 27 29 28 26 28 27
7 9 10 11 9 10 11 11 10 12 15 12 10 14 15 15 15 13 14 14 16 17 18 18 18 20 21 23 24 24 25 25 27 27 27 30 30 34 35 35 34 32 32
6 8 6 6 7 7 7 7 7 8 6 6 6 6 7 9 10 10 13 16 19 20 21 21 22 22 22 19 26 30 31 31 32 33 32 31 29 28 28 39 38 37 36
6 7 7 5 5 6 7 7 7 5 4 3 4 6 7 8 11 13 15 18 21 22 23 24 23 23 20 17 17 19 27 32 33 33 33 29 29 27 30 28 29 41 39
7 7 7 7 6 6 6 6 5 4 1 3 5 6 10 12 14 16 20 23 24 25 26 25 24 21 18 18 18 18 19 20 26 32 32 31 35 32 31 28 28 29 32
9 8 8 7 6 6 5 3 3 3 6 6 10 14 16 18 19 20 22 24 25 24 21 20 22 20 18 17 18 20 20 21 21 21 22 23 24 29 28 27 25 29 30
11 10 10 9 8 6 4 2 3 6 8 10 12 14 16 17 19 21 22 24 26 25 26 25 23 19 15 13 16 18 17 19 19 19 18 17 23 27 30 34 29 27 27
13 13 13 12 11 9 5 3 3 6 10 14 16 17 18 19 20 21 22 22 23 22 20 17 15 15 13 10 11 14 13 9 11 10 11 12 14 13 17 26 28 34 36
17 16 15 15 13 10 7 4 8 9 10 10 15 18 22 20 19 19 20 20 19 19 16 14 13 12 11 10 8 7 7 7 8 10 10 12 13 13 15 18 21 31 33
21 21 20 16 12 8 4 7 15 12 11 15 21 25 25 25 24 24 22 19 17 14 14 14 12 9 9 12 9 8 11 12 10 11 11 12 13 13 13 15 16 20 30
23 24 22 21 16 10 13 16 23 17 21 21 23 24 26 27 26 22 20 18 15 13 14 14 14 13 12 12 10 10 10 11 13 15 17 16 13 15 14 16 16 18 20
22 25 26 22 15 9 6 7 9 10 12 16 18 20 21 22 22 20 19 18 15 12 13 13 14 14 15 14 14 14 12 12 12 14 16 18 21 21 19 19 19 18 18
Wind_Direction
159 167 160 159 152 143 142 152 149 155 155 150 144 137 128 122 122 132 134 137 129 124 131 133 136 134 119 113 108 104 109 108 111 116 116 114 111 108 109 105 89 118 110
160 167 161 162 154 141 144 156 161 163 161 154 151 144 133 128 130 137 140 137 136 135 133 134 142 140 122 113 109 114 115 116 118 116 117 114 112 112 111 113 135 119 113
166 169 168 167 158 145 140 159 161 158 152 152 152 142 134 131 132 134 137 139 137 138 140 136 137 134 124 112 116 117 120 124 127 124 96 86 125 118 119 121 124 123 120
172 171 175 173 164 153 145 148 145 145 147 147 143 138 132 132 131 128 129 134 136 136 131 119 112 108 115 123 128 123 130 133 133 121 88 147 139 124 130 134 135 135 127
170 169 180 177 172 167 160 162 155 152 151 149 148 143 138 132 131 126 129 135 132 131 133 133 113 93 103 129 138 129 142 135 133 109 170 154 155 143 143 147 159 155 140
165 171 182 182 180 179 176 175 174 169 169 167 163 159 156 154 152 151 152 156 158 159 168 222 226 178 180 209 231 176 165 149 131 138 187 188 152 183 161 165 172 181 180
165 181 185 186 186 188 190 191 191 190 192 193 190 190 188 185 187 191 193 195 199 207 219 241 274 278 246 247 244 242 225 188 122 207 219 214 199 203 200 188 198 198 204
176 182 189 191 193 195 200 201 203 204 207 209 209 212 213 213 214 214 214 216 219 226 232 240 259 272 271 256 254 250 247 240 209 241 243 248 246 250 247 231 221 214 218
184 188 194 200 203 205 209 211 214 215 219 221 222 225 225 226 227 228 229 230 230 232 236 236 243 256 263 264 258 258 260 253 233 248 254 243 263 262 262 267 243 232 227
184 192 199 206 210 217 224 224 226 228 229 232 233 234 234 237 238 238 238 238 237 238 240 241 240 243 255 261 262 260 260 265 261 247 261 245 250 263 263 269 263 243 236
187 190 194 197 208 212 217 220 224 228 233 237 240 243 245 243 244 247 248 251 247 245 245 246 247 244 244 252 257 258 257 256 246 250 247 249 253 256 263 263 265 257 247
189 201 202 201 206 212 217 222 225 230 234 235 240 245 243 245 247 241 243 243 246 246 246 248 249 251 251 246 262 262 254 250 247 245 247 248 257 256 256 259 262 263 258
203 214 215 214 218 225 232 233 226 223 222 227 226 224 236 236 242 244 252 263 262 257 256 257 255 257 253 248 247 244 246 249 249 251 248 258 263 260 256 258 260 261 264
204 217 221 224 224 230 238 233 238 236 239 240 239 239 233 230 232 234 248 254 257 265 268 274 269 260 250 247 247 245 252 246 248 249 252 256 258 260 259 256 260 260 256
202 212 220 230 234 236 237 235 231 236 241 243 246 241 234 244 241 243 248 251 259 260 260 258 260 260 261 262 263 262 264 264 260 248 242 249 256 256 257 255 252 252 255
196 203 209 217 220 219 222 228 230 236 240 237 237 251 242 244 246 243 246 255 263 264 267 269 261 262 260 254 256 257 260 259 261 261 261 261 266 262 256 253 252 247 251
168 199 195 190 185 188 198 202 199 208 219 236 253 254 261 266 257 256 259 263 267 271 271 271 271 271 271 271 264 260 259 261 261 260 264 265 269 276 267 248 252 250 248
155 185 186 175 161 160 155 160 165 175 199 224 253 276 280 280 282 287 287 285 284 285 284 281 279 277 274 270 270 271 264 260 263 263 266 266 267 265 268 266 257 252 251
161 165 166 156 147 141 133 131 132 134 185 283 295 307 312 310 307 303 298 295 294 291 288 285 283 282 278 276 272 270 266 266 262 261 263 266 263 265 267 268 273 264 256
183 179 166 157 151 136 114 89 61 0 330 351 331 326 327 324 322 319 316 311 307 301 293 285 283 279 279 278 275 271 268 265 262 260 261 261 260 259 263 266 267 263 258
191 184 177 178 169 146 111 49 2 354 345 350 342 336 333 329 327 324 322 317 311 303 296 293 289 288 283 280 287 285 275 272 267 260 257 247 241 249 248 250 251 253 260
203 198 194 185 177 162 143 112 36 7 346 343 346 340 336 330 330 329 327 323 315 307 297 288 283 276 280 279 282 285 285 276 257 239 248 258 251 256 260 257 256 254 249
207 203 195 189 185 180 167 87 25 7 360 351 344 341 336 333 329 330 334 329 319 309 299 292 285 286 285 279 274 269 291 263 301 274 253 259 262 268 266 271 268 258 257
208 204 201 198 194 194 202 306 310 336 345 340 340 339 338 335 334 336 336 336 337 321 305 296 282 272 282 286 280 264 251 261 270 287 279 279 280 283 281 283 279 274 268
214 212 207 207 211 245 278 280 279 307 309 318 328 328 317 321 320 318 325 328 327 321 307 297 290 282 269 270 272 271 269 269 268 265 278 285 278 280 283 285 283 282 280
213 215 218 218 235 263 282 287 293 305 323 331 316 311 314 314 310 310 315 316 311 303 292 287 281 278 272 269 272 271 268 266 264 271 273 275 282 287 286 281 280 280 282